User: anonymous   Login
Location: Haliburton Scout Reserve
(45.0900°N, 78.3200°W)
Time: 13:23:32
(UTC-04:00)
Language:

JY1SAT - Orbit

View from above orbital plane
View from above orbital plane
View from above satellite
View from above satellite

Ground track
Ground track

The orbit data is extracted from the following two-line orbital elements,

1 43803U 18099AX  22136.45034188  .00003725  00000-0  32902-3 0  9998
2 43803  97.6202 204.2792 0014764  20.4592 339.7218 14.96879698188283
Epoch (UTC): 16 May 2022 10:48:29
Eccentricity: 0.0014764
inclination: 97.6202°
perigee height: 566 km
apogee height: 587 km
right ascension of ascending node: 204.2792°
argument of perigee: 20.4592°
revolutions per day: 14.96879698
mean anomaly at epoch: 339.7218°
orbit number at epoch: 18828

The dashed part of the orbit path shows where the satellite is in the earth's shadow,  

DLR